Location: Rio Negrinho
(26.2394°S, 49.4999°W)
Time: 21:11:14
(UTC+00:00)

Meteor 2-20 Rocket - Pass Details

Date: 07 June 2020
Orbit: 940 x 959 km, 82.5° (Epoch: 10 July)

Event Time Altitude Azimuth Distance (km) Brightness Sun altitude
Rises 08:55:52 0° 349° (NNW) 3,600 7.6 -14.3°
Reaches altitude 10° 08:58:21 10° 346° (NNW) 2,665 6.9 -13.8°
Maximum altitude 09:04:24 66° 264° (W) 1,038 4.4 -12.5°
Drops below altitude 10° 09:10:34 10° 181° (S) 2,707 6.6 -11.2°
Sets 09:13:07 0° 178° (S) 3,661 7.3 -10.7°
